Weather in Ust'-Mana

Russia / Krasnoyarsk Krai     55°56′33″N   92°28′42″E
temp.,
°C
wind,
m/s
gust,
m/s
humid.,
%
clouds,
%
prec.,
mm/h
press.,
hPa
HPBL,
m
9 may, sun
sun901:00+4wnw4118733 0.4 1013737
04:00+3wnw388690 0.1 1014743
07:00+2wnw477892 0.2 1015794
10:00+5nw466295 0.1 10151331
13:00+6nnw466298 0.6 10161406
16:00+6nnw4658100 0.7 10171489
19:00+6nnw246594 0.9 1018757
22:00+2wnw228932 0.1 102022
10 may, mon
mon1001:00+1wnw219356 0.1 102120
04:00+1w2290100 0.0 102245
07:00+3w2283100 0.0 1023136
10:00+7nw246650 0.0 1023739
13:00+11nne235393 0.1 10221567
16:00+12nne234794 0.1 10211533
19:00+10nne236524 0.8 1022350
22:00+6nne00825 0.1 102210
11 may, tue
tue1101:00+4n11885 0.1 102110
04:00+3nne11910 0.0 102010
07:00+6ne12790 0.0 1019140
10:00+11ene46550 0.0 10181041
13:00+15ene553986 0.0 10162369
16:00+14ne4542100 0.0 10151945
19:00+13ne354648 0.0 1015487
22:00+7n227498 0.0 101622
12 may, wed
wed1201:00+5n2392100 0.2 101652
04:00+4n269878 0.0 1017159
07:00+6ne3588100 0.0 1017446
10:00+8ne4571100 0.0 1017940
13:00+7nne4682100 0.1 1018754
16:00+8ene366885 0.1 10181061
19:00+9ne356297 0.3 1019985
22:00+4nw11817 0.0 102011
13 may, thu
thu1301:00+3wnw117941 0.0 102110
04:00+2wnw11832 0.0 102110
07:00+6nnw01670 0.0 1021118
10:00+12e11370 0.0 10201598
13:00+14e11290 0.0 10181961
16:00+16se12270 0.0 10152199
19:00+14w233634 0.0 1014397
22:00+7sw22610 0.0 101415